EW6070 Athens GR current weather conditions

sailwx.info

Wind at 1 knots

Air temperature 13.3° C
Dewpoint 13.3° C

Last reported at 2019-Dec-08 01:47 UTC.
Time now 2019-Dec-08 02:21 UTC

Location: N 37°55' E 023°43'.
View on Google Maps.

See reports from other nearby stations

  
Tides and Currents Weather Stations Pressure Air Temp Water Temp Dewpoint Dewpoint Depression Visibility Wind Speed Wind Dir Waves Ship Positions
date/time (UTC)wind fromknots sea level pressurealtimeterstation pressurevisibilityair tempwater tempwave heightnotes
2019-Dec-08 01:47 13.3
2019-Dec-08 01:31 13.9
2019-Dec-08 01:15 13.9
2019-Dec-08 01:01 354 2 13.9
2019-Dec-08 00:31 359 3 13.9
2019-Dec-08 00:16 320 1 13.9
2019-Dec-08 00:02 342 1 13.9
2019-Dec-07 23:45 359 13.9
2019-Dec-07 23:32 13.9
2019-Dec-07 21:45 034 13.9
2019-Dec-07 21:30 14.4
2019-Dec-07 21:16 353 1 15.0
2019-Dec-07 20:46 15.0
2019-Dec-07 20:31 316 0 15.0
2019-Dec-07 20:15 065 15.0
2019-Dec-07 20:00 064 15.0
2019-Dec-07 19:46 079 15.0
2019-Dec-07 19:31 315 15.0
2019-Dec-07 19:16 315 15.6
2019-Dec-07 19:00 315 16.1
2019-Dec-07 18:46 315 16.1
2019-Dec-07 18:31 315 16.1
2019-Dec-07 18:15 342 0 16.1
2019-Dec-07 18:01 320 16.1
2019-Dec-07 17:46 304 1 16.1
2019-Dec-07 17:31 288 1 16.1
2019-Dec-07 17:16 253 16.1
2019-Dec-07 17:01 059 0 16.1
2019-Dec-07 16:45 064 16.1
2019-Dec-07 16:31 213 16.1
2019-Dec-07 16:15 213 16.7
2019-Dec-07 16:01 215 1 16.7
2019-Dec-07 15:46 239 16.7
2019-Dec-07 15:30 258 0 16.7
2019-Dec-07 15:15 281 16.7
2019-Dec-07 15:01 254 17.2
2019-Dec-07 14:46 254 17.2
2019-Dec-07 13:46 237 16.7
2019-Dec-07 12:16 239 17.2
2019-Dec-07 12:02 223 17.2
2019-Dec-07 10:45 175 16.7
2019-Dec-07 10:15 059 16.7
2019-Dec-07 10:00 325 16.1
2019-Dec-07 09:45 343 0 15.6
2019-Dec-07 09:31 305 15.6
2019-Dec-07 09:15 285 2 15.6
2019-Dec-07 09:00 162 1 15.6
2019-Dec-07 08:45 172 1 15.6
2019-Dec-07 08:30 155 2 15.6
2019-Dec-07 08:15 176 0 15.0
2019-Dec-07 08:00 357 15.0
2019-Dec-07 07:45 346 14.4
2019-Dec-07 07:30 031 14.4
2019-Dec-07 07:01 003 13.3
2019-Dec-07 06:46 003 13.3
2019-Dec-07 06:31 004 13.3
2019-Dec-07 06:17 014 12.8
2019-Dec-07 06:02 347 12.8
2019-Dec-07 05:46 339 12.2
2019-Dec-07 05:32 008 0 12.8
2019-Dec-07 05:16 003 12.8
2019-Dec-07 05:02 014 12.2
2019-Dec-07 04:47 035 12.2
2019-Dec-07 04:31 12.2
2019-Dec-07 04:17 12.2
2019-Dec-07 04:01 016 12.8
2019-Dec-07 03:46 018 12.8
2019-Dec-07 03:31 12.8
2019-Dec-07 03:16 004 12.8
2019-Dec-07 03:01 030 12.8
2019-Dec-07 02:46 051 12.8
2019-Dec-07 02:31 051 12.8
2019-Dec-07 02:17 082 12.8
2019-Dec-07 02:01 082 12.8
2019-Dec-07 01:46 093 13.3
2019-Dec-07 01:31 093 0 13.3
2019-Dec-07 01:16 090 13.3
2019-Dec-07 01:01 058 12.8
2019-Dec-07 00:46 038 12.8
2019-Dec-07 00:30 001 12.8
2019-Dec-07 00:16 12.8
2019-Dec-07 00:01 12.8
2019-Dec-06 23:45 12.8
2019-Dec-06 23:31 12.8
2019-Dec-06 23:15 12.2
2019-Dec-06 23:01 12.2
2019-Dec-06 22:45 12.2
2019-Dec-06 22:31 12.2
2019-Dec-06 22:15 12.2
2019-Dec-06 22:00 335 12.2
2019-Dec-06 21:45 335 12.2
2019-Dec-06 21:30 359 12.2
2019-Dec-06 21:15 12.2
2019-Dec-06 21:00 352 12.2
2019-Dec-06 20:45 354 12.2
2019-Dec-06 20:30 359 12.2
2019-Dec-06 20:15 349 12.2
2019-Dec-06 20:01 353 1 11.7
2019-Dec-06 19:45 357 2 12.2
2019-Dec-06 19:30 343 0 12.2
2019-Dec-06 19:15 356 12.2
2019-Dec-06 19:00 353 11.7
2019-Dec-06 18:45 350 11.7
2019-Dec-06 18:30 347 0 11.7
2019-Dec-06 18:15 342 12.2
2019-Dec-06 18:00 343 12.2
2019-Dec-06 17:45 343 12.2
2019-Dec-06 17:30 343 12.2
2019-Dec-06 17:15 343 12.2
2019-Dec-06 17:00 343 12.2
2019-Dec-06 16:45 342 12.2
2019-Dec-06 16:30 340 12.2
2019-Dec-06 16:15 340 12.2
2019-Dec-06 16:02 340 12.2
2019-Dec-06 15:47 342 12.8
2019-Dec-06 15:33 342 12.8
2019-Dec-06 15:18 342 12.8
2019-Dec-06 15:01 342 12.8
2019-Dec-06 14:46 342 0 12.8
2019-Dec-06 14:32 350 1 13.3
2019-Dec-06 14:17 359 0 13.3
2019-Dec-06 14:01 001 1 13.3
2019-Dec-06 13:46 066 1 13.3
2019-Dec-06 13:31 359 0 13.3
2019-Dec-06 13:17 13.3
2019-Dec-06 13:01 13.3
2019-Dec-06 12:46 318 2 13.3
2019-Dec-06 12:32 294 2 13.3
2019-Dec-06 12:16 356 1 13.3
2019-Dec-06 12:01 291 2 13.3
2019-Dec-06 11:47 008 5 13.3
2019-Dec-06 11:31 244 1 13.3
2019-Dec-06 11:16 349 2 13.3
2019-Dec-06 11:01 306 3 12.8
2019-Dec-06 10:46 312 2 13.3
2019-Dec-06 10:31 357 1 13.3
2019-Dec-06 10:16 068 2 13.3
2019-Dec-06 10:01 357 1 13.3
2019-Dec-06 09:46 014 0 12.8
2019-Dec-06 09:30 040 1 12.2
2019-Dec-06 09:16 326 2 12.2
2019-Dec-06 09:01 017 1 12.2
2019-Dec-06 08:45 147 0 12.2
2019-Dec-06 08:30 346 0 12.2
2019-Dec-06 08:16 359 2 11.7
2019-Dec-06 08:00 035 0 11.7
2019-Dec-06 07:46 085 1 11.1
2019-Dec-06 07:31 055 1 11.1
2019-Dec-06 07:16 049 1 10.6
2019-Dec-06 07:00 038 1 10.6
2019-Dec-06 06:45 051 0 10.0
2019-Dec-06 06:30 040 9.4
2019-Dec-06 06:15 051 0 8.9
2019-Dec-06 06:00 066 8.3
2019-Dec-06 05:46 025 8.3
2019-Dec-06 05:30 024 8.3
2019-Dec-06 05:15 024 8.3
2019-Dec-06 05:00 025 8.3
2019-Dec-06 04:45 025 8.3
2019-Dec-06 04:30 047 8.3
2019-Dec-06 04:15 048 8.3
2019-Dec-06 04:01 048 0 8.3
2019-Dec-06 03:45 051 1 8.3
2019-Dec-06 03:30 333 0 8.3
2019-Dec-06 03:15 044 0 8.3
2019-Dec-06 03:00 350 8.3
2019-Dec-06 02:45 350 8.3
2019-Dec-06 02:30 350 8.3
2019-Dec-06 02:15 333 8.3
2019-Dec-06 02:00 332 8.3